Home   Weather   Maldonado   Past weeks

Flag for Uruguay Past Weather in Maldonado, Uruguay — Yesterday and Last 2 Weeks

50 °F

Passing clouds.

Feels Like: 42 °F
Forecast: 48 / 60 °F
Wind: 30 mph from Southwest

Location: Capitan Corbeta

Current Time: Oct 28, 2016 at 5:40:39 AM

Latest Report: Oct 28, 2016 at 2:00 AM

Visibility: N/A

Pressure: 30.01 "Hg

Humidity: 67%

Dew Point: 39 °F

Location of MaldonadoLocation

Past Weather in Maldonado — Graph


Maldonado Temperature Yesterday

Maximum temperature yesterday: 57 °F (at 12:00 AM)
Minimum temperature yesterday: 52 °F (at 9:00 PM)
Average temperature yesterday: 54 °F

High & Low Weather Summary for the Past Weeks

High79 °F (Oct 16, 4:00 PM)100% (Oct 16, 9:00 AM)30.18 "Hg (Oct 16, 9:00 AM)
Low48 °F (Oct 14, 6:00 AM)47% (Oct 17, 11:00 PM)29.56 "Hg (Oct 16, 4:00 PM)
Average60 °F86%29.95 "Hg
* Reported Oct 13 2:00 AM — Oct 28 2:00 AM, Maldonado, Weather by CustomWeather, © 2016

Note: Actual official high and low records may vary slightly from our data, if they occured in-between our weather recording intervals... More about our weather records


Maldonado Weather History for the Previous 24 Hours

Scroll right to see more
Time TempWeatherWind HumidityBarometerVisibility
2:00 AM
Fri, Oct 28
50 °FPassing clouds.30 mph67%30.01 "HgN/A
1:00 AM50 °FPassing clouds.30 mph71%30.01 "HgN/A
12:00 AM52 °FPassing clouds.28 mph67%30.01 "HgN/A
11:00 PM
Thu, Oct 27
52 °FPassing clouds.33 mph72%29.98 "HgN/A
10:00 PM52 °FPassing clouds.37 mph77%29.98 "Hg4 mi
9:00 PM52 °FPassing clouds.35 mph77%29.95 "Hg4 mi
8:00 PM54 °FFog.40 mph82%29.89 "Hg3 mi
7:00 PM54 °FFog.43 mph82%29.86 "Hg2 mi
5:00 PM54 °FDrizzle. Mostly cloudy.44 mph82%29.80 "Hg1 mi
4:00 PM54 °FLight rain. Mostly cloudy.48 mph82%29.77 "Hg1 mi
2:00 PM54 °FRain. Mostly cloudy.54 mph82%29.74 "Hg1 mi
1:00 PM54 °FDrizzle. Mostly cloudy.54 mph88%29.71 "Hg1 mi
12:00 PM54 °FDrizzle. Mostly cloudy.46 mph88%29.68 "Hg1 mi
11:00 AM54 °FDrizzle. Fog.52 mph82%29.65 "Hg1 mi
9:00 AM54 °FFog.39 mph94%29.62 "Hg2 mi
8:00 AM55 °FRain. Fog.45 mph82%29.59 "Hg2 mi
7:00 AM54 °FFog.46 mph88%29.59 "Hg2 mi
6:00 AM54 °FRain. Mostly cloudy.43 mph88%29.59 "Hg2 mi
5:00 AM54 °FRain. Overcast.36 mph88%29.59 "Hg5 mi
Weather by CustomWeather, © 2016

See weather overviewHow to use our weather pages